Current Version              Previous Version:    01  02  03  04  05  06  07  08  09  10  11  12  13  14  15  16  17  18  19  20  21  22  23  24  25  26  27  28  29  30  
   31  32  33  34  35  36  37  38  39  40  41  42  43  44  45  46  47  48  49  50  51  52  53  54  55  56  57  58  59  60  

[Printable]
903
ASUS44 KFWD 210110
RWRTX
NORTH TEXAS HOURLY WEATHER ROUNDUP
NATIONAL WEATHER SERVICE FORT WORTH TX
800 PM CDT MON OCT 20 2014

NOTE: "FAIR" INDICATES FEW OR NO CLOUDS BELOW 12,000 FEET WITH NO
SIGNIFICANT WEATHER AND/OR OBSTRUCTIONS TO VISIBILITY.

TXZ118-119-210200-
DALLAS/FORT WORTH METROPLEX

CITY           SKY/WX    TMP DP  RH WIND       PRES   REMARKS
DFW AIRPORT    PTCLDY    71  59  65 SE7       30.02R
DALLAS LOVE    PTCLDY    74  60  61 SE6       30.02R
FTW MEACHAM    CLEAR     76  58  53 E6        30.01R
DAL-EXECUTIVE  CLEAR     70  59  68 SE5       30.02R
FTW-ALLIANCE   PTCLDY    71  57  61 SE3       30.02R
FTW-NAS-JRB    PTCLDY    78  55  44 SE6       30.06R
FTW-SPINKS     CLEAR     70  58  65 SE3       30.04R
ARLINGTON      CLEAR     73  59  61 SE7       30.02R
GRAND PRAIRIE  CLEAR     73  61  64 MISG      30.03R
ADDISON        PTCLDY    75  57  53 E5        30.03R
MESQUITE       CLEAR     70  59  68 SE5       30.03R
LANCASTER      CLEAR     72  58  62 SE3       30.03S
$$

TXZ091>094-102>105-117-120-121-131>134-210200-
NORTH CENTRAL TEXAS

CITY           SKY/WX    TMP DP  RH WIND       PRES   REMARKS
SHRMAN/DENISON CLEAR     71  63  75 CALM      30.04R
GAINESVILLE      N/A     72  61  68 MISG      30.05R HAZE
BOWIE          CLEAR     70  61  72 CALM      30.03R
BRIDGEPORT     CLEAR     71  60  67 S3        30.04R
DECATUR        CLEAR     71  58  64 SE3       30.04R
DENTON         CLEAR     74  59  59 E5        30.02R
MCKINNEY       CLEAR     70  60  70 S6        30.03R
GREENVILLE     CLEAR     68  59  73 CALM      30.04R
ROCKWALL       CLEAR     71  61  71 SE8       30.02S
TERRELL        CLEAR     70  61  73 E3        30.04R
WAXAHACHIE     CLEAR     70  60  71 CALM      30.04R
CLEBURNE       CLEAR     72  61  68 E6        30.04R
GRANBURY       CLEAR     74  58  57 SE5       30.03R
$$

TXZ083>090-098>101-113>116-127>130-139>142-154-155-210200-
WESTERN NORTH TEXAS

CITY           SKY/WX    TMP DP  RH WIND       PRES   REMARKS
WICHITA FALLS  CLEAR     71  58  63 S8        30.00R
WF-KICKAPOO    CLEAR     72  57  60 SE5       30.02S
VERNON         CLEAR     73  55  53 SE5       30.02R
ABILENE        CLEAR     71  54  54 SE6       30.05R
ABILENE-DYESS  CLEAR     73  55  53 SE8       30.03R
BRECKENRIDGE   PTCLDY    75  56  52 SE6       30.03R
GRAHAM         CLEAR     73  59  59 E3        30.01R
MINERAL WELLS  CLEAR     71  58  63 SE6       30.01R
STEPHENVILLE   CLEAR     70  57  62 E7        30.06S
COMANCHE       CLEAR     71  59  64 SE3       30.04R
BROWNWOOD      CLOUDY    70  59  68 E5        30.04R
COLEMAN        PTCLDY    71  56  60 CALM      30.05R
BRADY          CLEAR     70  54  56 E5        30.04R
$$

TXZ143>147-156>162-174-175-210200-
CENTRAL TEXAS

CITY           SKY/WX    TMP DP  RH WIND       PRES   REMARKS
WACO           PTCLDY    71  59  65 E6        30.02R
WACO-MCGREGOR  MOCLDY    72  54  53 SE3       30.03S
HILLSBORO      PTCLDY    73  57  57 E6        30.03R
CORSICANA      PTCLDY    70  58  65 E3        30.04R
MEXIA          CLEAR     68  61  78 CALM      30.03R
HEARNE         PTCLDY    69  62  80 CALM      30.03R
CAMERON        MOCLDY    73  60  65 CALM      30.02R
TEMPLE         MOCLDY    70  54  56 E7        30.02R
KILLEEN        MOCLDY    73  57  56 E8        30.03R
KILLEEN-SKYLRK MOCLDY    73  55  53 E5        30.03R
FORT HOOD      MOCLDY    74  59  59 E3        30.03R
GATESVILLE     MOCLDY    72  59  64 CALM      30.05R
HAMILTON       PTCLDY    71  56  59 E8        30.04S
LAMPASAS       PTCLDY    71  61  70 CALM      30.03R
$$

TXZ095>097-106>112-122>126-135>138-148>153-164>167-210200-
EAST TEXAS

CITY           SKY/WX    TMP DP  RH WIND       PRES   REMARKS
PARIS          CLEAR     68  55  64 SE7       30.05R
SULPHUR SPRNGS   N/A     69  60  73 SE5       30.06R
MOUNT PLEASANT CLEAR     69  59  71 CALM      30.06R
MINEOLA        CLEAR     64  61  88 CALM      30.05R
TYLER          CLEAR     67  58  72 NE5       30.03S
LONGVIEW       CLEAR     65  56  72 CALM      30.03S
MARSHALL       CLEAR     64  59  83 CALM      30.06S
ATHENS         CLEAR     64  59  82 CALM      30.03R
JACKSONVILLE   CLEAR     67  56  67 CALM      30.06R
HENDERSON      CLEAR     62  59  90 CALM      30.05R
NACOGDOCHES    PTCLDY    61  55  82 CALM      30.05R
LUFKIN         PTCLDY    66  58  75 CALM      30.03R
$$

SUPPLEMENTAL OBSERVATIONS (CENTRAL)

CITY           SKY/WX    TMP DP  RH WIND       PRES   REMARKS
CADDO GRASSLND   N/A     66  61  82 SE1         N/A
PAT MAYSE LAKE   N/A     72  61  68 E6          N/A
GREENVILLE       N/A     70  59  68 SE2         N/A
CEDAR HILL       N/A     72  59  64 SE2         N/A
PALESTINE        N/A     64  59  82 CALM        N/A
MCGREGOR         N/A     72  57  60 E1          N/A
TEMPLE           N/A     73  57  56 E5          N/A
$$

SUPPLEMENTAL OBSERVATIONS (WEST)

CITY           SKY/WX    TMP DP  RH WIND       PRES   REMARKS
MILLERS CREEK    N/A     72  54  53 E3          N/A
POSSUM KINGDOM   N/A     73  55  53 E2          N/A
LBJ GRASSLAND    N/A     72  57  60 SE5         N/A
GRANBURY         N/A     73  57  56 S6          N/A
HAMBY            N/A     70  54  56 SE5         N/A
IVIE RESERVOIR   N/A     72  54  53 E7          N/A
COLORADO BEND    N/A     66  54  63 E1          N/A
$$

SUPPLEMENTAL OBSERVATIONS (EAST)

CITY           SKY/WX    TMP DP  RH WIND       PRES   REMARKS
TEXARKANA        N/A     61  57  88 CALM        N/A
LINDEN           N/A     64  59  82 CALM        N/A
LUFKIN           N/A     63  59  88 MISG        N/A
$$

SUPPLEMENTAL OBSERVATIONS ARE A COLLECTION OF AUTOMATED INSTRUMENTS
THAT ARE MAINTAINED BY A VARIETY OF FEDERAL AND STATE AGENCIES.
CERTAIN ELEMENTS...SUCH AS HUMIDITY VALUES AND SUSTAINED WIND
SPEEDS...MAY BE APPROXIMATED.